OSSERVATORIO METEOROLOGICO COMUNALE "E. Torricelli" - Faenza (Italia)

Latitudine: 44° 17' 44.97" N - Longitudine: 11° 52' 33.27" E - Altitudine: 36 m s.l.m.

20 aprile 2019

Temperatura
(°C)
Umidità
(%)
Pressione
(hPa)
Velocità vento
(km/h)
Pioggia Rad. Sol.
(W/m2)
Max Min Med Max Min Med Max Min Max Orario Dir.
Med.
Totale
(mm)
Intensità
(mm/h)
Max
23,1 7,7 15,1 70 21 46 1025 1021 22 15:50 198 - - 871

Orario Temperatura
(°C)
Umidità
(%)
Pressione
(hPa)
Velocità vento
(km/h)
Dir. vento
(°)
Pioggia
(mm)
Rad. Sol.
(W/m2)
0:00 10,3 61 1025,3 6 245 - -
0:15 10,1 63 1025,3 8 230 - -
0:30 9,9 63 1025,3 12 233 - -
0:45 9,6 64 1025,2 10 235 - -
1:00 9,4 65 1025,2 9 223 - -
1:15 9,3 66 1025,2 12 228 - -
1:30 9,2 67 1025,0 7 190 - -
1:45 9,1 67 1024,7 8 235 - -
2:00 9,1 67 1024,6 9 230 - -
2:15 9,0 66 1024,6 8 248 - -
2:30 9,0 66 1024,6 5 205 - -
2:45 8,9 66 1024,6 9 218 - -
3:00 8,7 67 1024,6 9 215 - -
3:15 8,4 68 1024,6 6 258 - -
3:30 8,3 69 1024,5 13 233 - -
3:45 8,3 69 1024,4 7 248 - -
4:00 8,2 69 1024,4 10 245 - -
4:15 8,4 68 1024,5 8 235 - -
4:30 8,2 67 1024,5 6 218 - -
4:45 7,9 68 1024,6 6 245 - -
5:00 7,8 69 1024,6 11 225 - -
5:15 7,8 69 1024,6 6 245 - -
5:30 7,8 69 1024,6 4 240 - 6,8
5:45 8,0 68 1024,6 9 243 - 16,8
6:00 8,0 67 1024,7 7 220 - 26,3
6:15 8,3 66 1024,7 10 215 - 35,5
6:30 8,7 65 1024,8 9 243 - 170,7
6:45 9,3 63 1024,8 8 228 - 221,3
7:00 9,9 61 1024,8 6 228 - 270,9
7:15 10,3 60 1024,9 4 243 - 321,4
7:30 11,0 58 1024,9 4 240 - 369,6
7:45 11,9 56 1024,9 2 198 - 414,7
8:00 13,0 51 1025,1 1 133 - 459,5
8:15 13,6 49 1025,1 2 63 - 505,2
8:30 14,8 45 1025,1 6 315 - 546,1
8:45 15,7 43 1025,1 3 30 - 586,2
9:00 16,4 42 1025,1 5 328 - 622,5
9:15 16,9 37 1025,0 3 15 - 648,0
9:30 17,9 37 1025,0 6 313 - 664,4
9:45 18,5 34 1024,9 4 333 - 691,3
10:00 18,7 37 1024,8 2 333 - 716,5
10:15 19,2 28 1024,7 3 348 - 744,9
10:30 19,5 28 1024,6 1 45 - 771,4
10:45 19,3 26 1024,6 3 355 - 794,0
11:00 20,1 29 1024,4 1 13 - 816,7
11:15 20,4 28 1024,3 2 125 - 834,6
11:30 20,5 28 1024,1 7 338 - 851,0
11:45 21,2 27 1023,9 1 345 - 861,6
12:00 21,3 25 1023,8 1 303 - 859,0
12:15 21,8 27 1023,7 2 3 - 860,9
12:30 21,3 24 1023,7 2 78 - 856,3
12:45 22,8 30 1023,5 4 180 - 845,9
13:00 22,0 24 1023,4 4 63 - 829,8
13:15 21,5 27 1023,2 1 30 - 831,5
13:30 22,0 26 1023,1 2 135 - 784,2
13:45 22,7 25 1022,9 2 150 - 763,7
14:00 23,0 29 1022,7 2 348 - 753,7
14:15 22,5 27 1022,6 4 135 - 735,2
14:30 22,0 26 1022,4 6 108 - 696,9
14:45 21,6 21 1022,3 5 333 - 618,4
15:00 21,7 27 1022,1 4 90 - 618,2
15:15 21,5 25 1021,9 3 85 - 573,2
15:30 21,9 24 1021,7 1 355 - 558,1
15:45 21,6 24 1021,6 6 120 - 446,7
16:00 21,3 27 1021,3 5 155 - 478,3
16:15 21,3 27 1021,3 6 105 - 443,7
16:30 21,1 26 1021,5 2 138 - 383,2
16:45 20,9 26 1021,4 5 115 - 332,2
17:00 20,8 28 1021,2 2 25 - 251,1
17:15 20,3 28 1021,0 4 110 - 137,8
17:30 19,9 30 1020,9 2 120 - 131,3
17:45 19,6 32 1021,0 2 145 - 102,3
18:00 - - - - - - -
18:15 - - - - - - -
18:30 - - - - - - -
18:45 - - - - - - -
19:00 - - - - - - -
19:15 - - - - - - -
19:30 - - - - - - -
19:45 - - - - - - -
20:00 - - - - - - -
20:15 - - - - - - -
20:30 - - - - - - -
20:45 - - - - - - -
21:00 - - - - - - -
21:15 - - - - - - -
21:30 - - - - - - -
21:45 - - - - - - -
22:00 - - - - - - -
22:15 - - - - - - -
22:30 - - - - - - -
22:45 - - - - - - -
23:00 - - - - - - -
23:15 - - - - - - -
23:30 - - - - - - -
23:45 - - - - - - -
24:00 - - - - - - -